Stuttgart, AR

4:51 AM CDT on March 26, 2017 (GMT -0500)
Stuttgart Municipal

Weather History for KSGT - June, 2013

Change the Weather History Date:

Wednesday, June 12, 2013

  Actual Average Record
Temperature  
Mean Temperature 85 °F -  
Max Temperature 95 °F 85 °F 98 °F (1998)
Min Temperature 75 °F 67 °F 64 °F (1997)
Cooling Degree Days 20    
Growing Degree Days 35 (Base 50)    
Moisture  
Dew Point 72 °F    
Average Humidity 66    
Maximum Humidity 83    
Minimum Humidity 47    
Precipitation  
Precipitation 0.00 in - - ()
Sea Level Pressure  
Sea Level Pressure 30.01 in    
Wind  
Wind Speed 10 mph (SSW)    
Max Wind Speed 18 mph    
Max Gust Speed 23 mph    
Visibility 10 miles    
Events      
Averages and records for this station are not official NWS values.
T = Trace of Precipitation, MM = Missing Value Source: NWS Daily Summary

Daily Weather History Graph

Daily Weather History Graph

Search for Another Location

Airport or City:

Trip Planner

Search our weather history database for the weather conditions in past years. The results will help you decide how hot, cold, wet, or windy it might be!

Date:

Astronomy

Jun. 12, 2013 Rise Set
Actual Time 5:52 AM CDT 8:19 PM CDT
Civil Twilight 5:23 AM CDT 8:49 PM CDT
Nautical Twilight 4:47 AM CDT 9:25 PM CDT
Astronomical Twilight 4:07 AM CDT 10:05 PM CDT
Moon 9:25 AM CDT (6/12) 11:04 PM CDT (6/12)
Length of Visible Light 15h 25m
Length of Day
14h 26m
Waxing Crescent, 14% of the Moon is Illuminated
Jun 12
Waxing Crescent
Jun 16
First Quarter
Jun 23
Full
Jun 29
Last Quarter
Jul 8
New

Hourly Weather History & Observations

Time (CDT) Temp. Heat Index Dew Point Humidity Pressure Visibility Wind Dir Wind Speed Gust Speed Precip Events Conditions
12:15 AM 80.6 °F 84.6 °F 71.6 °F 74% 30.02 in 10.0 mi South 5.8 mph - N/A   Clear
12:35 AM 80.6 °F 84.6 °F 71.6 °F 74% 30.02 in 10.0 mi South 8.1 mph - N/A   Clear
12:55 AM 80.6 °F 84.6 °F 71.6 °F 74% 30.01 in 10.0 mi South 9.2 mph - N/A   Clear
1:15 AM 78.8 °F - 71.6 °F 78% 30.01 in 10.0 mi South 9.2 mph - N/A   Clear
1:35 AM 78.8 °F - 71.6 °F 78% 30.00 in 10.0 mi South 9.2 mph - N/A   Clear
1:55 AM 77.0 °F - 71.6 °F 83% 30.00 in 10.0 mi South 8.1 mph - N/A   Clear
2:15 AM 77.0 °F - 69.8 °F 78% 30.00 in 10.0 mi SSW 6.9 mph - N/A   Clear
2:35 AM 75.2 °F - 69.8 °F 83% 30.00 in 10.0 mi South 8.1 mph - N/A   Clear
2:55 AM 75.2 °F - 69.8 °F 83% 29.99 in 10.0 mi SSW 6.9 mph - N/A   Clear
3:16 AM 75.2 °F - 69.8 °F 83% 29.99 in 10.0 mi SSW 8.1 mph - N/A   Clear
3:35 AM 75.2 °F - 69.8 °F 83% 29.99 in 10.0 mi SSW 9.2 mph - N/A   Clear
3:55 AM 75.2 °F - 69.8 °F 83% 29.99 in 10.0 mi SSW 8.1 mph - N/A   Clear
4:15 AM 75.2 °F - 69.8 °F 83% 29.99 in 10.0 mi SSW 6.9 mph - N/A   Clear
4:35 AM 75.2 °F - 69.8 °F 83% 29.99 in 10.0 mi SSW 6.9 mph - N/A   Clear
4:55 AM 75.2 °F - 69.8 °F 83% 30.00 in 10.0 mi SSW 8.1 mph - N/A   Clear
5:15 AM 75.2 °F - 69.8 °F 83% 30.00 in 10.0 mi South 8.1 mph - N/A   Clear
5:36 AM 75.2 °F - 69.8 °F 83% 30.00 in 10.0 mi SSW 6.9 mph - N/A   Clear
5:55 AM 75.2 °F - 69.8 °F 83% 30.01 in 10.0 mi SSW 8.1 mph - N/A   Clear
6:15 AM 75.2 °F - 69.8 °F 83% 30.02 in 10.0 mi SSW 8.1 mph - N/A   Clear
6:35 AM 75.2 °F - 69.8 °F 83% 30.03 in 10.0 mi SSW 6.9 mph - N/A   Clear
6:55 AM 77.0 °F - 71.6 °F 83% 30.04 in 10.0 mi SSW 6.9 mph - N/A   Clear
7:15 AM 78.8 °F - 71.6 °F 78% 30.05 in 10.0 mi SW 4.6 mph - N/A   Clear
7:35 AM 80.6 °F 84.6 °F 71.6 °F 74% 30.05 in 10.0 mi SW 9.2 mph - N/A   Clear
7:55 AM 82.4 °F 87.2 °F 71.6 °F 70% 30.06 in 10.0 mi SW 9.2 mph - N/A   Clear
8:15 AM 82.4 °F 86.3 °F 69.8 °F 66% 30.07 in 10.0 mi WSW 9.2 mph - N/A   Clear
8:35 AM 84.2 °F 90.9 °F 73.4 °F 70% 30.06 in 10.0 mi SW 11.5 mph - N/A   Clear
8:55 AM 84.2 °F 90.9 °F 73.4 °F 70% 30.07 in 10.0 mi SW 13.8 mph - N/A   Clear
9:16 AM 84.2 °F 90.9 °F 73.4 °F 70% 30.07 in 10.0 mi WSW 13.8 mph - N/A   Clear
9:35 AM 87.8 °F 95.6 °F 73.4 °F 62% 30.06 in 10.0 mi SW 16.1 mph - N/A   Clear
9:55 AM 87.8 °F 95.6 °F 73.4 °F 62% 30.06 in 10.0 mi WSW 13.8 mph - N/A   Clear
10:15 AM 89.6 °F 98.2 °F 73.4 °F 59% 30.06 in 10.0 mi SW 17.3 mph 21.9 mph N/A   Clear
10:35 AM 89.6 °F 98.2 °F 73.4 °F 59% 30.06 in 10.0 mi SW 17.3 mph 20.7 mph N/A   Clear
10:55 AM 89.6 °F 98.2 °F 73.4 °F 59% 30.07 in 10.0 mi WSW 17.3 mph 23.0 mph N/A   Clear
11:15 AM 89.6 °F 98.2 °F 73.4 °F 59% 30.07 in 10.0 mi SW 17.3 mph - N/A   Partly Cloudy
11:35 AM 91.4 °F 100.1 °F 73.4 °F 55% 30.07 in 10.0 mi SW 18.4 mph 23.0 mph N/A   Partly Cloudy
11:55 AM 91.4 °F 100.1 °F 73.4 °F 55% 30.06 in 10.0 mi SW 13.8 mph 19.6 mph N/A   Clear
12:15 PM 91.4 °F 100.1 °F 73.4 °F 55% 30.06 in 10.0 mi SW 17.3 mph 23.0 mph N/A   Partly Cloudy
12:36 PM 93.2 °F 102.4 °F 73.4 °F 52% 30.05 in 10.0 mi SSW 17.3 mph - N/A   Partly Cloudy
12:55 PM 93.2 °F 102.4 °F 73.4 °F 52% 30.05 in 10.0 mi SSW 16.1 mph 19.6 mph N/A   Partly Cloudy
1:15 PM 93.2 °F 102.4 °F 73.4 °F 52% 30.04 in 10.0 mi SW 17.3 mph 20.7 mph N/A   Scattered Clouds
1:35 PM 93.2 °F 102.4 °F 73.4 °F 52% 30.04 in 10.0 mi SSW 16.1 mph 21.9 mph N/A   Partly Cloudy
1:55 PM 93.2 °F 105.0 °F 75.2 °F 56% 30.03 in 10.0 mi SW 13.8 mph 21.9 mph N/A   Partly Cloudy
2:15 PM 93.2 °F 102.4 °F 73.4 °F 52% 30.02 in 10.0 mi SW 17.3 mph - N/A   Scattered Clouds
2:35 PM 95.0 °F 104.5 °F 73.4 °F 49% 30.01 in 10.0 mi SSW 15.0 mph 20.7 mph N/A   Scattered Clouds
2:55 PM 93.2 °F 102.4 °F 73.4 °F 52% 30.01 in 10.0 mi SW 15.0 mph 20.7 mph N/A   Scattered Clouds
3:35 PM 95.0 °F 104.5 °F 73.4 °F 49% 29.99 in 10.0 mi SW 15.0 mph 21.9 mph N/A   Clear
3:55 PM 95.0 °F 103.2 °F 71.6 °F 47% 29.99 in 10.0 mi SW 16.1 mph - N/A   Clear
4:15 PM 95.0 °F 103.2 °F 71.6 °F 47% 29.99 in 10.0 mi SW 13.8 mph - N/A   Clear
4:35 PM 95.0 °F 103.2 °F 71.6 °F 47% 29.98 in 9.0 mi SW 16.1 mph - N/A   Clear
4:56 PM 93.2 °F 100.5 °F 71.6 °F 49% 29.97 in 10.0 mi SW 16.1 mph 20.7 mph N/A   Clear
5:15 PM 93.2 °F 100.5 °F 71.6 °F 49% 29.97 in 10.0 mi SW 15.0 mph - N/A   Clear
5:35 PM 93.2 °F 100.5 °F 71.6 °F 49% 29.96 in 10.0 mi SSW 13.8 mph - N/A   Clear
5:55 PM 93.2 °F 100.5 °F 71.6 °F 49% 29.95 in 10.0 mi SSW 18.4 mph - N/A   Clear
6:15 PM 93.2 °F 100.5 °F 71.6 °F 49% 29.95 in 10.0 mi SW 15.0 mph - N/A   Clear
6:35 PM 91.4 °F 96.8 °F 69.8 °F 49% 29.95 in 10.0 mi SSW 17.3 mph - N/A   Clear
6:55 PM 91.4 °F 96.8 °F 69.8 °F 49% 29.95 in 10.0 mi SW 11.5 mph - N/A   Clear
7:16 PM 91.4 °F 98.4 °F 71.6 °F 52% 29.95 in 10.0 mi SSW 13.8 mph - N/A   Clear
7:35 PM 89.6 °F 96.2 °F 71.6 °F 55% 29.95 in 10.0 mi SSW 11.5 mph - N/A   Clear
7:55 PM 87.8 °F 93.8 °F 71.6 °F 58% 29.96 in 10.0 mi SW 11.5 mph - N/A   Clear
8:15 PM 87.8 °F 92.6 °F 69.8 °F 55% 29.96 in 10.0 mi SSW 11.5 mph - N/A   Clear
8:35 PM 86.0 °F 90.4 °F 69.8 °F 58% 29.96 in 10.0 mi SSW 10.4 mph - N/A   Clear
8:55 PM 84.2 °F 88.4 °F 69.8 °F 62% 29.96 in 10.0 mi SSW 9.2 mph - N/A   Clear
9:15 PM 82.4 °F 86.3 °F 69.8 °F 66% 29.97 in 10.0 mi SW 8.1 mph - N/A   Clear
9:36 PM 82.4 °F 87.2 °F 71.6 °F 70% 29.98 in 10.0 mi SSW 6.9 mph - N/A   Clear
9:55 PM 80.6 °F 84.6 °F 71.6 °F 74% 29.98 in 10.0 mi SW 6.9 mph - N/A   Clear
10:15 PM 80.6 °F 84.6 °F 71.6 °F 74% 29.98 in 10.0 mi SSW 6.9 mph - N/A   Clear
10:35 PM 80.6 °F 84.6 °F 71.6 °F 74% 29.98 in 10.0 mi SSW 8.1 mph - N/A   Clear
10:55 PM 80.6 °F 84.6 °F 71.6 °F 74% 29.98 in 10.0 mi SSW 10.4 mph - N/A   Clear
11:15 PM 80.6 °F 84.6 °F 71.6 °F 74% 29.97 in 10.0 mi SSW 9.2 mph - N/A   Clear
11:35 PM 78.8 °F - 71.6 °F 78% 29.97 in 10.0 mi SSW 8.1 mph - N/A   Clear
11:55 PM 78.8 °F - 71.6 °F 78% 29.98 in 10.0 mi SSW 9.2 mph - N/A   Clear